| time (UTC) | temp F | wind direction | speed MPH | gust MPH | rain 1hr in | rain 24hr in | rain mn in | humidity % | barometer mb |
| 20260901162328 | 68 | 111 | 0.0 | 1.0 | 0.00 | 0.00 | 0.00 | 79 | 1008.2 |
| 20260901161828 | 68 | 110 | 0.0 | 1.0 | 0.00 | 0.00 | 0.00 | 78 | 1008.2 |
| 20260901161329 | 68 | 110 | 0.0 | 1.0 | 0.00 | 0.00 | 0.00 | 76 | 1008.2 |
| 20260901160830 | 69 | 110 | 0.0 | 3.0 | 0.00 | 0.00 | 0.00 | 75 | 1008.2 |
| 20260901160331 | 69 | 111 | 1.0 | 3.0 | 0.00 | 0.00 | 0.00 | 75 | 1008.2 |
| 20260901155831 | 70 | 111 | 2.0 | 3.0 | 0.00 | 0.00 | 0.00 | 74 | 1008.2 |
| 20260901155339 | 70 | 110 | 0.0 | 0.0 | 0.00 | 0.00 | 0.00 | 70 | 1008.1 |
| 20260901154828 | 70 | 111 | 0.0 | 0.0 | 0.00 | 0.00 | 0.00 | 70 | 1008.1 |
| 20260901154350 | 70 | 111 | 0.0 | 3.0 | 0.00 | 0.00 | 0.00 | 70 | 1008.1 |
| 20260901153830 | 70 | 111 | 1.0 | 3.0 | 0.00 | 0.00 | 0.00 | 69 | 1008.1 |
| 20260901153330 | 70 | 110 | 0.0 | 3.0 | 0.00 | 0.00 | 0.00 | 71 | 1008.1 |
| 20260901152832 | 70 | 110 | 0.0 | 4.0 | 0.00 | 0.00 | 0.00 | 70 | 1008.1 |
| 20260901152339 | 70 | 111 | 1.0 | 4.0 | 0.00 | 0.00 | 0.00 | 71 | 1008.1 |
| 20260901151828 | 70 | 110 | 0.0 | 1.0 | 0.00 | 0.00 | 0.00 | 71 | 1008.1 |
| 20260901151329 | 70 | 111 | 0.0 | 3.0 | 0.00 | 0.00 | 0.00 | 71 | 1008.1 |
| 20260901150837 | 70 | 111 | 0.0 | 3.0 | 0.00 | 0.00 | 0.00 | 71 | 1008.1 |
| 20260901150325 | 70 | 111 | 0.0 | 2.0 | 0.00 | 0.00 | 0.00 | 70 | 1008.1 |
| 20260901145852 | 70 | 111 | 1.0 | 4.0 | 0.00 | 0.00 | 0.00 | 72 | 1008.1 |
| 20260901145330 | 69 | 110 | 2.0 | 4.0 | 0.00 | 0.00 | 0.00 | 71 | 1008.2 |
| 20260901144830 | 69 | 111 | 2.0 | 4.0 | 0.00 | 0.00 | 0.00 | 72 | 1008.2 |
| 20260901144331 | 69 | 111 | 0.0 | 6.0 | 0.00 | 0.00 | 0.00 | 72 | 1008.2 |
| 20260901143839 | 69 | 111 | 2.0 | 6.0 | 0.00 | 0.00 | 0.00 | 73 | 1008.2 |
| 20260901143328 | 69 | 111 | 0.0 | 3.0 | 0.00 | 0.00 | 0.00 | 73 | 1008.2 |
| 20260901142829 | 69 | 111 | 0.0 | 1.0 | 0.00 | 0.00 | 0.00 | 74 | 1008.2 |
| 20260901142335 | 69 | 110 | 0.0 | 3.0 | 0.00 | 0.00 | 0.00 | 74 | 1008.2 |
| 20260901141824 | 69 | 111 | 1.0 | 3.0 | 0.00 | 0.00 | 0.00 | 73 | 1008.2 |
| 20260901141331 | 69 | 111 | 0.0 | 3.0 | 0.00 | 0.00 | 0.00 | 74 | 1008.2 |
| 20260901140851 | 69 | 111 | 1.0 | 3.0 | 0.00 | 0.00 | 0.00 | 74 | 1008.2 |
| 20260901140330 | 69 | 110 | 1.0 | 3.0 | 0.00 | 0.00 | 0.00 | 74 | 1008.3 |
| 20260901135837 | 69 | 111 | 0.0 | 4.0 | 0.00 | 0.00 | 0.00 | 73 | 1008.3 |
| 20260901135346 | 69 | 110 | 1.0 | 4.0 | 0.00 | 0.00 | 0.00 | 73 | 1008.3 |
| 20260901134835 | 69 | 111 | 1.0 | 4.0 | 0.00 | 0.00 | 0.00 | 73 | 1008.3 |
| 20260901134324 | 70 | 111 | 0.0 | 3.0 | 0.00 | 0.00 | 0.00 | 74 | 1008.3 |
| 20260901133831 | 70 | 111 | 0.0 | 3.0 | 0.00 | 0.00 | 0.00 | 73 | 1008.4 |
| 20260901133339 | 70 | 111 | 2.0 | 6.0 | 0.00 | 0.00 | 0.00 | 73 | 1008.3 |
| 20260901132828 | 70 | 111 | 0.0 | 6.0 | 0.00 | 0.00 | 0.00 | 73 | 1008.3 |
| 20260901132329 | 69 | 351 | 1.0 | 4.0 | 0.00 | 0.00 | 0.00 | 73 | 1008.4 |
| 20260901131830 | 69 | 348 | 0.0 | 1.0 | 0.00 | 0.00 | 0.00 | 71 | 1008.4 |
| 20260901131331 | 70 | 348 | 0.0 | 1.0 | 0.00 | 0.00 | 0.00 | 72 | 1008.4 |
| 20260901130839 | 70 | 348 | 0.0 | 1.0 | 0.00 | 0.00 | 0.00 | 71 | 1008.4 |
| 20260901130328 | 70 | 348 | 0.0 | 2.0 | 0.00 | 0.00 | 0.00 | 71 | 1008.3 |
| 20260901125836 | 70 | 348 | 0.0 | 3.0 | 0.00 | 0.00 | 0.00 | 70 | 1008.4 |
| 20260901125325 | 71 | 348 | 1.0 | 4.0 | 0.00 | 0.00 | 0.00 | 70 | 1008.3 |
| 20260901124835 | 71 | 348 | 2.0 | 4.0 | 0.00 | 0.00 | 0.00 | 69 | 1008.4 |
| 20260901124325 | 71 | 349 | 1.0 | 4.0 | 0.00 | 0.00 | 0.00 | 69 | 1008.4 |
| 20260901123832 | 71 | 349 | 1.0 | 3.0 | 0.00 | 0.00 | 0.00 | 70 | 1008.3 |
| 20260901123330 | 71 | 349 | 0.0 | 3.0 | 0.00 | 0.00 | 0.00 | 70 | 1008.3 |
| 20260901122850 | 71 | 349 | 1.0 | 4.0 | 0.00 | 0.00 | 0.00 | 72 | 1008.3 |
| 20260901122329 | 70 | 344 | 1.0 | 4.0 | 0.00 | 0.00 | 0.00 | 71 | 1008.2 |
| 20260901121828 | 70 | 344 | 1.0 | 4.0 | 0.00 | 0.00 | 0.00 | 71 | 1008.3 |
| 20260901121329 | 70 | 344 | 1.0 | 4.0 | 0.00 | 0.00 | 0.00 | 72 | 1008.3 |
| 20260901120830 | 69 | 344 | 2.0 | 4.0 | 0.00 | 0.00 | 0.00 | 71 | 1008.3 |
| 20260901120330 | 69 | 344 | 1.0 | 3.0 | 0.00 | 0.00 | 0.00 | 73 | 1008.3 |
| 20260901115831 | 69 | 344 | 1.0 | 3.0 | 0.00 | 0.00 | 0.00 | 74 | 1008.4 |
| 20260901115400 | 68 | 344 | 0.0 | 1.0 | 0.00 | 0.00 | 0.00 | 75 | 1008.4 |
| 20260901114829 | 68 | 344 | 0.0 | 2.0 | 0.00 | 0.00 | 0.00 | 76 | 1008.5 |
| 20260901114329 | 68 | 344 | 0.0 | 2.0 | 0.00 | 0.00 | 0.00 | 74 | 1008.5 |
| 20260901113828 | 69 | 344 | 0.0 | 2.0 | 0.00 | 0.00 | 0.00 | 74 | 1008.3 |
| 20260901113328 | 70 | 360 | 0.0 | 3.0 | 0.00 | 0.00 | 0.00 | 72 | 1008.3 |
| 20260901112836 | 70 | 360 | 1.0 | 4.0 | 0.00 | 0.00 | 0.00 | 70 | 1008.3 |
| 20260901112325 | 71 | 360 | 2.0 | 5.0 | 0.00 | 0.00 | 0.00 | 72 | 1008.3 |
| 20260901111834 | 70 | 360 | 2.0 | 5.0 | 0.00 | 0.00 | 0.00 | 72 | 1008.3 |
| 20260901111401 | 70 | 360 | 1.0 | 2.0 | 0.00 | 0.00 | 0.00 | 73 | 1008.3 |
| 20260901110829 | 69 | 360 | 0.0 | 3.0 | 0.00 | 0.00 | 0.00 | 73 | 1008.3 |
| 20260901110329 | 69 | 360 | 2.0 | 3.0 | 0.00 | 0.00 | 0.00 | 75 | 1008.3 |
| 20260901105829 | 68 | 360 | 1.0 | 3.0 | 0.00 | 0.00 | 0.00 | 75 | 1008.4 |
| 20260901105350 | 67 | 360 | 1.0 | 2.0 | 0.00 | 0.00 | 0.00 | 77 | 1008.3 |
| 20260901104829 | 67 | 360 | 0.0 | 1.0 | 0.00 | 0.00 | 0.00 | 77 | 1008.4 |
| 20260901104329 | 67 | 360 | 0.0 | 2.0 | 0.00 | 0.00 | 0.00 | 75 | 1008.4 |
| 20260901103834 | 68 | 360 | 1.0 | 2.0 | 0.00 | 0.00 | 0.00 | 75 | 1008.4 |
| 20260901103328 | 68 | 360 | 0.0 | 3.0 | 0.00 | 0.00 | 0.00 | 74 | 1008.4 |
| 20260901102836 | 69 | 360 | 1.0 | 3.0 | 0.00 | 0.00 | 0.00 | 72 | 1008.3 |
| 20260901102344 | 69 | 360 | 1.0 | 3.0 | 0.00 | 0.00 | 0.00 | 73 | 1008.3 |
| 20260901101831 | 69 | 360 | 1.0 | 3.0 | 0.00 | 0.00 | 0.00 | 72 | 1008.3 |
| 20260901101328 | 69 | 360 | 1.0 | 3.0 | 0.00 | 0.00 | 0.00 | 74 | 1008.2 |
| 20260901100829 | 68 | 360 | 1.0 | 3.0 | 0.00 | 0.00 | 0.00 | 75 | 1008.2 |
| 20260901100349 | 68 | 360 | 1.0 | 3.0 | 0.00 | 0.00 | 0.00 | 74 | 1008.2 |
| 20260901095831 | 68 | 360 | 0.0 | 2.0 | 0.00 | 0.00 | 0.00 | 74 | 1008.1 |
| 20260901095331 | 68 | 360 | 1.0 | 3.0 | 0.00 | 0.00 | 0.00 | 74 | 1008.1 |
| 20260901094830 | 68 | 360 | 1.0 | 3.0 | 0.00 | 0.00 | 0.00 | 75 | 1008.1 |
| 20260901094354 | 68 | 360 | 1.0 | 3.0 | 0.00 | 0.00 | 0.00 | 74 | 1008.0 |
| 20260901093826 | 68 | 360 | 1.0 | 3.0 | 0.00 | 0.00 | 0.00 | 74 | 1008.0 |
| 20260901093349 | 67 | 360 | 1.0 | 4.0 | 0.00 | 0.00 | 0.00 | 76 | 1008.0 |
| 20260901092824 | 67 | 360 | 1.0 | 3.0 | 0.00 | 0.00 | 0.00 | 79 | 1008.0 |
| 20260901092324 | 67 | 360 | 0.0 | 3.0 | 0.00 | 0.00 | 0.00 | 78 | 1008.0 |
| 20260901091824 | 66 | 360 | 1.0 | 3.0 | 0.00 | 0.00 | 0.00 | 81 | 1008.0 |
| 20260901091345 | 66 | 360 | 1.0 | 3.0 | 0.00 | 0.00 | 0.00 | 79 | 1008.0 |
| 20260901090825 | 66 | 360 | 0.0 | 5.0 | 0.00 | 0.00 | 0.00 | 80 | 1007.9 |
| 20260901090326 | 66 | 360 | 2.0 | 5.0 | 0.00 | 0.00 | 0.00 | 81 | 1007.9 |
| 20260901085835 | 65 | 360 | 0.0 | 3.0 | 0.00 | 0.00 | 0.00 | 82 | 1007.9 |
| 20260901085324 | 65 | 360 | 2.0 | 3.0 | 0.00 | 0.00 | 0.00 | 83 | 1007.9 |
| 20260901084825 | 65 | 330 | 1.0 | 3.0 | 0.00 | 0.00 | 0.00 | 84 | 1007.9 |
| 20260901084326 | 64 | 330 | 1.0 | 2.0 | 0.00 | 0.00 | 0.00 | 84 | 1007.9 |
| 20260901083832 | 64 | 331 | 1.0 | 3.0 | 0.00 | 0.00 | 0.00 | 84 | 1007.9 |
| 20260901083340 | 64 | 331 | 0.0 | 3.0 | 0.00 | 0.00 | 0.00 | 86 | 1007.9 |
| 20260901082828 | 63 | 330 | 2.0 | 3.0 | 0.00 | 0.00 | 0.00 | 86 | 1007.9 |
| 20260901082356 | 63 | 331 | 0.0 | 2.0 | 0.00 | 0.00 | 0.00 | 87 | 1007.9 |
| 20260901081843 | 62 | 330 | 1.0 | 2.0 | 0.00 | 0.00 | 0.00 | 88 | 1007.9 |
| 20260901081325 | 62 | 331 | 1.0 | 3.0 | 0.00 | 0.00 | 0.00 | 87 | 1007.8 |
| 20260901080824 | 62 | 331 | 1.0 | 3.0 | 0.00 | 0.00 | 0.00 | 88 | 1007.8 |
| 20260901080334 | 62 | 330 | 1.0 | 2.0 | 0.00 | 0.00 | 0.00 | 88 | 1007.7 |
| 20260901075824 | 61 | 330 | 1.0 | 2.0 | 0.00 | 0.00 | 0.00 | 89 | 1007.7 |
| 20260901075345 | 61 | 331 | 0.0 | 2.0 | 0.00 | 0.00 | 0.00 | 89 | 1007.7 |
| 20260901074824 | 61 | 331 | 1.0 | 3.0 | 0.00 | 0.00 | 0.00 | 90 | 1007.7 |
| 20260901074325 | 60 | 331 | 1.0 | 3.0 | 0.00 | 0.00 | 0.00 | 90 | 1007.6 |
| 20260901073826 | 60 | 327 | 1.0 | 2.0 | 0.00 | 0.00 | 0.00 | 91 | 1007.6 |
| 20260901073347 | 60 | 327 | 0.0 | 2.0 | 0.00 | 0.00 | 0.00 | 92 | 1007.6 |
| 20260901072829 | 59 | 327 | 1.0 | 2.0 | 0.00 | 0.00 | 0.00 | 93 | 1007.6 |
| 20260901072330 | 59 | 327 | 1.0 | 3.0 | 0.00 | 0.00 | 0.00 | 93 | 1007.7 |
| 20260901071830 | 59 | 327 | 1.0 | 3.0 | 0.00 | 0.00 | 0.00 | 94 | 1007.6 |
| 20260901071330 | 58 | 327 | 2.0 | 3.0 | 0.00 | 0.00 | 0.00 | 95 | 1007.6 |
| 20260901070851 | 58 | 328 | 1.0 | 3.0 | 0.00 | 0.00 | 0.00 | 95 | 1007.6 |
| 20260901070330 | 58 | 328 | 1.0 | 3.0 | 0.00 | 0.00 | 0.00 | 95 | 1007.6 |
| 20260901065831 | 58 | 328 | 1.0 | 2.0 | 0.00 | 0.00 | 0.00 | 96 | 1007.6 |
| 20260901065332 | 57 | 328 | 1.0 | 2.0 | 0.00 | 0.00 | 0.00 | 96 | 1007.5 |
| 20260901064851 | 57 | 328 | 1.0 | 2.0 | 0.00 | 0.00 | 0.00 | 96 | 1007.5 |
| 20260901064350 | 57 | 328 | 1.0 | 3.0 | 0.00 | 0.00 | 0.00 | 96 | 1007.5 |
| 20260901063829 | 56 | 328 | 1.0 | 3.0 | 0.00 | 0.00 | 0.00 | 96 | 1007.5 |
| 20260901063330 | 56 | 329 | 0.0 | 2.0 | 0.00 | 0.00 | 0.00 | 96 | 1007.5 |
| 20260901062830 | 56 | 329 | 0.0 | 2.0 | 0.00 | 0.00 | 0.00 | 96 | 1007.5 |
| 20260901062352 | 55 | 305 | 0.0 | 2.0 | 0.00 | 0.00 | 0.00 | 96 | 1007.4 |
| 20260901061830 | 55 | 202 | 0.0 | 3.0 | 0.00 | 0.00 | 0.00 | 96 | 1007.4 |
| 20260901061338 | 54 | 202 | 1.0 | 3.0 | 0.00 | 0.00 | 0.00 | 96 | 1007.4 |
| 20260901060828 | 54 | 192 | 0.0 | 0.0 | 0.00 | 0.00 | 0.00 | 96 | 1007.4 |
| 20260901060330 | 53 | 192 | 0.0 | 0.0 | 0.00 | 0.00 | 0.00 | 95 | 1007.3 |
| 20260901055830 | 53 | 191 | 0.0 | 0.0 | 0.00 | 0.00 | 0.00 | 95 | 1007.3 |
| 20260901055351 | 52 | 192 | 0.0 | 0.0 | 0.00 | 0.00 | 0.00 | 95 | 1007.4 |
| 20260901054831 | 52 | 192 | 0.0 | 0.0 | 0.00 | 0.00 | 0.00 | 95 | 1007.4 |
| 20260901054332 | 52 | 192 | 0.0 | 0.0 | 0.00 | 0.00 | 0.00 | 95 | 1007.4 |
| 20260901053901 | 52 | 192 | 0.0 | 0.0 | 0.00 | 0.00 | 0.00 | 95 | 1007.5 |
| 20260901053329 | 52 | 192 | 0.0 | 0.0 | 0.00 | 0.00 | 0.00 | 95 | 1007.4 |
| 20260901052831 | 52 | 192 | 0.0 | 0.0 | 0.00 | 0.00 | 0.00 | 95 | 1007.3 |
| 20260901052331 | 52 | 192 | 0.0 | 0.0 | 0.00 | 0.00 | 0.00 | 95 | 1007.3 |
| 20260901051831 | 52 | 192 | 0.0 | 0.0 | 0.00 | 0.00 | 0.00 | 95 | 1007.3 |
| 20260901051338 | 52 | 192 | 0.0 | 0.0 | 0.00 | 0.00 | 0.00 | 95 | 1007.2 |
| 20260901050846 | 52 | 192 | 0.0 | 0.0 | 0.00 | 0.00 | 0.00 | 95 | 1007.1 |
| 20260901050331 | 52 | 192 | 0.0 | 0.0 | 0.00 | 0.00 | 0.00 | 95 | 1007.2 |
| 20260901045830 | 52 | 192 | 0.0 | 0.0 | 0.00 | 0.00 | 0.00 | 95 | 1007.2 |
| 20260901045352 | 52 | 192 | 0.0 | 0.0 | 0.00 | 0.00 | 0.00 | 95 | 1007.2 |
| 20260901044827 | 52 | 192 | 0.0 | 0.0 | 0.00 | 0.00 | 0.00 | 95 | 1007.1 |
| 20260901044334 | 52 | 192 | 0.0 | 0.0 | 0.00 | 0.00 | 0.00 | 95 | 1007.1 |
| 20260901043828 | 52 | 192 | 0.0 | 0.0 | 0.00 | 0.00 | 0.00 | 95 | 1007.0 |
| 20260901043329 | 52 | 192 | 0.0 | 0.0 | 0.00 | 0.00 | 0.00 | 95 | 1007.0 |
| 20260901042826 | 52 | 192 | 0.0 | 0.0 | 0.00 | 0.00 | 0.00 | 95 | 1007.1 |
| 20260901042327 | 52 | 192 | 0.0 | 0.0 | 0.00 | 0.00 | 0.00 | 95 | 1007.0 |
| 20260901041826 | 52 | 192 | 0.0 | 0.0 | 0.00 | 0.00 | 0.00 | 95 | 1007.0 |
| 20260901041347 | 52 | 192 | 0.0 | 0.0 | 0.00 | 0.00 | 0.00 | 95 | 1007.0 |
| 20260901040827 | 52 | 192 | 0.0 | 0.0 | 0.00 | 0.00 | 0.00 | 95 | 1007.0 |
| 20260901040327 | 52 | 192 | 0.0 | 0.0 | 0.00 | 0.00 | 0.00 | 95 | 1007.1 |
| 20260901035857 | 52 | 192 | 0.0 | 0.0 | 0.00 | 0.00 | 0.00 | 95 | 1007.0 |
| 20260901035325 | 52 | 192 | 0.0 | 0.0 | 0.00 | 0.00 | 0.00 | 94 | 1007.0 |
| 20260901034825 | 52 | 192 | 0.0 | 0.0 | 0.00 | 0.00 | 0.00 | 95 | 1007.0 |
| 20260901034328 | 52 | 192 | 0.0 | 0.0 | 0.00 | 0.00 | 0.00 | 95 | 1007.0 |
| 20260901033836 | 52 | 192 | 0.0 | 0.0 | 0.00 | 0.00 | 0.00 | 95 | 1007.0 |
| 20260901033324 | 52 | 192 | 0.0 | 0.0 | 0.00 | 0.00 | 0.00 | 94 | 1007.0 |
| 20260901032826 | 51 | 192 | 0.0 | 0.0 | 0.00 | 0.00 | 0.00 | 95 | 1007.1 |
| 20260901032327 | 51 | 192 | 0.0 | 0.0 | 0.00 | 0.00 | 0.00 | 94 | 1007.1 |
| 20260901031848 | 51 | 192 | 0.0 | 0.0 | 0.00 | 0.00 | 0.00 | 94 | 1007.2 |
| 20260901031327 | 51 | 192 | 0.0 | 0.0 | 0.00 | 0.00 | 0.00 | 94 | 1007.1 |
| 20260901030826 | 51 | 192 | 0.0 | 0.0 | 0.00 | 0.00 | 0.00 | 94 | 1007.1 |
| 20260901030326 | 51 | 192 | 0.0 | 0.0 | 0.00 | 0.00 | 0.00 | 94 | 1007.2 |
| 20260901025828 | 51 | 192 | 0.0 | 0.0 | 0.00 | 0.00 | 0.00 | 94 | 1007.2 |
| 20260901025328 | 51 | 192 | 0.0 | 0.0 | 0.00 | 0.00 | 0.00 | 94 | 1007.1 |
| 20260901024849 | 51 | 192 | 0.0 | 0.0 | 0.00 | 0.00 | 0.00 | 94 | 1007.1 |
| 20260901024349 | 51 | 192 | 0.0 | 0.0 | 0.00 | 0.00 | 0.00 | 94 | 1007.1 |
| 20260901023828 | 51 | 192 | 0.0 | 0.0 | 0.00 | 0.00 | 0.00 | 94 | 1007.0 |
| 20260901023329 | 51 | 192 | 0.0 | 0.0 | 0.00 | 0.00 | 0.00 | 94 | 1007.0 |
| 20260901022831 | 51 | 192 | 0.0 | 0.0 | 0.00 | 0.00 | 0.00 | 94 | 1007.0 |
| 20260901022400 | 51 | 192 | 0.0 | 0.0 | 0.00 | 0.00 | 0.00 | 94 | 1007.0 |
| 20260901021829 | 51 | 192 | 0.0 | 0.0 | 0.00 | 0.00 | 0.00 | 94 | 1007.0 |
| 20260901021328 | 51 | 192 | 0.0 | 1.0 | 0.00 | 0.00 | 0.00 | 94 | 1007.0 |
| 20260901020830 | 52 | 192 | 0.0 | 2.0 | 0.00 | 0.00 | 0.00 | 94 | 1007.0 |
| 20260901020330 | 52 | 192 | 0.0 | 2.0 | 0.00 | 0.00 | 0.00 | 94 | 1006.9 |
| 20260901015830 | 52 | 192 | 1.0 | 2.0 | 0.00 | 0.00 | 0.00 | 94 | 1006.8 |
| 20260901015331 | 52 | 191 | 1.0 | 3.0 | 0.00 | 0.00 | 0.00 | 94 | 1006.8 |
| 20260901014852 | 52 | 191 | 2.0 | 3.0 | 0.00 | 0.00 | 0.00 | 94 | 1006.8 |
| 20260901014352 | 52 | 301 | 0.0 | 2.0 | 0.00 | 0.00 | 0.00 | 94 | 1006.7 |
| 20260901013847 | 52 | 301 | 0.0 | 0.0 | 0.00 | 0.00 | 0.00 | 94 | 1006.7 |
| 20260901013346 | 52 | 301 | 0.0 | 0.0 | 0.00 | 0.00 | 0.00 | 94 | 1006.7 |
| 20260901012824 | 52 | 300 | 0.0 | 0.0 | 0.00 | 0.00 | 0.00 | 94 | 1006.6 |
| 20260901012332 | 52 | 301 | 0.0 | 1.0 | 0.00 | 0.00 | 0.00 | 94 | 1006.7 |
| 20260901011841 | 52 | 301 | 0.0 | 1.0 | 0.00 | 0.00 | 0.00 | 94 | 1006.7 |
| 20260901011349 | 52 | 301 | 0.0 | 1.0 | 0.00 | 0.00 | 0.00 | 94 | 1006.8 |
| 20260901010835 | 52 | 300 | 0.0 | 2.0 | 0.00 | 0.00 | 0.00 | 94 | 1006.8 |
| 20260901010404 | 52 | 301 | 1.0 | 2.0 | 0.00 | 0.00 | 0.00 | 94 | 1006.8 |
| 20260901005825 | 52 | 301 | 1.0 | 2.0 | 0.00 | 0.00 | 0.00 | 94 | 1006.8 |
| 20260901005325 | 52 | 301 | 0.0 | 0.0 | 0.00 | 0.00 | 0.00 | 94 | 1006.8 |
| 20260901004825 | 52 | 300 | 0.0 | 0.0 | 0.00 | 0.00 | 0.00 | 94 | 1006.9 |
| 20260901004346 | 52 | 300 | 0.0 | 0.0 | 0.00 | 0.00 | 0.00 | 94 | 1006.9 |
| 20260901003825 | 52 | 301 | 0.0 | 0.0 | 0.00 | 0.00 | 0.00 | 94 | 1007.0 |
| 20260901003333 | 52 | 300 | 0.0 | 0.0 | 0.00 | 0.00 | 0.00 | 94 | 1007.0 |
| 20260901002843 | 52 | 301 | 0.0 | 0.0 | 0.00 | 0.00 | 0.00 | 94 | 1007.0 |
| 20260901002350 | 52 | 300 | 0.0 | 0.0 | 0.00 | 0.00 | 0.00 | 94 | 1006.9 |
| 20260901001829 | 52 | 301 | 0.0 | 0.0 | 0.00 | 0.00 | 0.00 | 93 | 1006.9 |
| 20260901001329 | 52 | 301 | 0.0 | 0.0 | 0.00 | 0.00 | 0.00 | 93 | 1006.9 |
| 20260901000829 | 53 | 301 | 0.0 | 1.0 | 0.00 | 0.00 | 0.00 | 93 | 1006.9 |
| 20260901000330 | 53 | 300 | 0.0 | 0.0 | 0.00 | 0.00 | 0.00 | 93 | 1006.8 |
| 20260831235830 | 53 | 301 | 0.0 | 1.0 | 0.00 | 0.00 | 0.00 | 93 | 1006.8 |
| 20260831235330 | 53 | 301 | 0.0 | 1.0 | 0.00 | 0.00 | 0.00 | 94 | 1006.8 |
| 20260831234851 | 53 | 301 | 0.0 | 0.0 | 0.00 | 0.00 | 0.00 | 93 | 1006.9 |
| 20260831234331 | 53 | 300 | 0.0 | 0.0 | 0.00 | 0.00 | 0.00 | 93 | 1006.8 |
| 20260831233851 | 53 | 300 | 0.0 | 0.0 | 0.00 | 0.00 | 0.00 | 93 | 1006.8 |
| 20260831233331 | 53 | 301 | 0.0 | 0.0 | 0.00 | 0.00 | 0.00 | 93 | 1006.9 |
| 20260831232851 | 53 | 301 | 0.0 | 0.0 | 0.00 | 0.00 | 0.00 | 93 | 1006.9 |
| 20260831232330 | 53 | 300 | 0.0 | 1.0 | 0.00 | 0.00 | 0.00 | 93 | 1006.8 |
| 20260831231829 | 53 | 301 | 0.0 | 2.0 | 0.00 | 0.00 | 0.00 | 94 | 1006.8 |
| 20260831231329 | 53 | 301 | 0.0 | 2.0 | 0.00 | 0.00 | 0.00 | 94 | 1006.9 |
| 20260831230836 | 54 | 300 | 1.0 | 3.0 | 0.00 | 0.00 | 0.00 | 93 | 1006.9 |
| 20260831230324 | 54 | 301 | 1.0 | 3.0 | 0.00 | 0.00 | 0.00 | 93 | 1006.9 |
| 20260831225851 | 54 | 301 | 2.0 | 3.0 | 0.00 | 0.00 | 0.00 | 93 | 1006.9 |
| 20260831225337 | 54 | 302 | 0.0 | 0.0 | 0.00 | 0.00 | 0.00 | 93 | 1006.9 |
| 20260831224825 | 54 | 302 | 0.0 | 0.0 | 0.00 | 0.00 | 0.00 | 93 | 1006.9 |
| 20260831224352 | 54 | 302 | 0.0 | 0.0 | 0.00 | 0.00 | 0.00 | 93 | 1006.9 |
| 20260831223831 | 54 | 302 | 0.0 | 0.0 | 0.00 | 0.00 | 0.00 | 93 | 1006.9 |
| 20260831223330 | 54 | 302 | 0.0 | 0.0 | 0.00 | 0.00 | 0.00 | 93 | 1006.9 |
| 20260831222837 | 54 | 302 | 0.0 | 0.0 | 0.00 | 0.00 | 0.00 | 93 | 1006.9 |
| 20260831222325 | 55 | 302 | 0.0 | 1.0 | 0.00 | 0.00 | 0.00 | 93 | 1006.9 |
| 20260831221833 | 55 | 302 | 0.0 | 1.0 | 0.00 | 0.00 | 0.00 | 93 | 1006.9 |
| 20260831221336 | 55 | 302 | 0.0 | 1.0 | 0.00 | 0.00 | 0.00 | 93 | 1006.8 |
| 20260831220825 | 55 | 302 | 0.0 | 1.0 | 0.00 | 0.00 | 0.00 | 93 | 1006.8 |
| 20260831220331 | 55 | 302 | 0.0 | 2.0 | 0.00 | 0.00 | 0.00 | 93 | 1006.7 |
| 20260831215839 | 55 | 302 | 1.0 | 2.0 | 0.00 | 0.00 | 0.00 | 93 | 1006.8 |
| 20260831215328 | 55 | 302 | 0.0 | 0.0 | 0.00 | 0.00 | 0.00 | 93 | 1006.8 |
| 20260831214828 | 55 | 302 | 0.0 | 0.0 | 0.00 | 0.00 | 0.00 | 93 | 1006.8 |
| 20260831214330 | 55 | 302 | 0.0 | 1.0 | 0.00 | 0.00 | 0.00 | 93 | 1006.8 |
| 20260831213851 | 55 | 302 | 0.0 | 1.0 | 0.00 | 0.00 | 0.00 | 93 | 1006.8 |
| 20260831213329 | 55 | 302 | 0.0 | 1.0 | 0.00 | 0.00 | 0.00 | 93 | 1006.8 |
| 20260831212830 | 55 | 302 | 0.0 | 1.0 | 0.00 | 0.00 | 0.00 | 93 | 1006.8 |
| 20260831212331 | 55 | 302 | 0.0 | 1.0 | 0.00 | 0.00 | 0.00 | 93 | 1006.8 |
| 20260831211832 | 55 | 302 | 0.0 | 1.0 | 0.00 | 0.00 | 0.00 | 93 | 1006.8 |
| 20260831211332 | 55 | 302 | 0.0 | 2.0 | 0.00 | 0.00 | 0.00 | 93 | 1006.8 |
| 20260831210852 | 55 | 302 | 1.0 | 1.0 | 0.00 | 0.00 | 0.00 | 93 | 1006.8 |
| 20260831210348 | 55 | 302 | 1.0 | 2.0 | 0.00 | 0.00 | 0.00 | 92 | 1006.7 |
| 20260831205848 | 55 | 302 | 1.0 | 2.0 | 0.00 | 0.00 | 0.00 | 92 | 1006.7 |
| 20260831205326 | 55 | 302 | 1.0 | 1.0 | 0.00 | 0.00 | 0.00 | 92 | 1006.7 |
| 20260831204828 | 55 | 302 | 0.0 | 1.0 | 0.00 | 0.00 | 0.00 | 92 | 1006.7 |
| 20260831204327 | 55 | 302 | 0.0 | 2.0 | 0.00 | 0.00 | 0.00 | 92 | 1006.7 |
| 20260831203856 | 56 | 302 | 1.0 | 2.0 | 0.00 | 0.00 | 0.00 | 92 | 1006.6 |
| 20260831203343 | 56 | 302 | 0.0 | 0.0 | 0.00 | 0.00 | 0.00 | 92 | 1006.6 |
| 20260831202826 | 56 | 302 | 0.0 | 2.0 | 0.00 | 0.00 | 0.00 | 92 | 1006.6 |
| 20260831202327 | 56 | 302 | 1.0 | 2.0 | 0.00 | 0.00 | 0.00 | 92 | 1006.6 |
| 20260831201827 | 56 | 302 | 1.0 | 2.0 | 0.00 | 0.00 | 0.00 | 92 | 1006.6 |
| 20260831201328 | 56 | 302 | 1.0 | 2.0 | 0.00 | 0.00 | 0.00 | 92 | 1006.7 |
| 20260831200828 | 56 | 302 | 1.0 | 2.0 | 0.00 | 0.00 | 0.00 | 92 | 1006.6 |
| 20260831200349 | 56 | 302 | 1.0 | 2.0 | 0.00 | 0.00 | 0.00 | 91 | 1006.6 |
| 20260831195828 | 57 | 302 | 1.0 | 2.0 | 0.00 | 0.00 | 0.00 | 91 | 1006.6 |
| 20260831195328 | 57 | 302 | 0.0 | 1.0 | 0.00 | 0.00 | 0.00 | 91 | 1006.6 |
| 20260831194829 | 57 | 302 | 0.0 | 1.0 | 0.00 | 0.00 | 0.00 | 91 | 1006.6 |
| 20260831194335 | 57 | 302 | 0.0 | 1.0 | 0.00 | 0.00 | 0.00 | 91 | 1006.6 |
| 20260831193845 | 57 | 302 | 0.0 | 2.0 | 0.00 | 0.00 | 0.00 | 91 | 1006.7 |
| 20260831193352 | 57 | 302 | 1.0 | 2.0 | 0.00 | 0.00 | 0.00 | 91 | 1006.8 |
| 20260831192832 | 58 | 302 | 1.0 | 2.0 | 0.00 | 0.00 | 0.00 | 91 | 1006.8 |
| 20260831192340 | 58 | 302 | 1.0 | 2.0 | 0.00 | 0.00 | 0.00 | 91 | 1006.8 |
| 20260831191829 | 58 | 302 | 0.0 | 2.0 | 0.00 | 0.00 | 0.00 | 90 | 1006.7 |
| 20260831191330 | 58 | 302 | 0.0 | 2.0 | 0.00 | 0.00 | 0.00 | 90 | 1006.7 |
| 20260831190831 | 59 | 302 | 0.0 | 0.0 | 0.00 | 0.00 | 0.00 | 90 | 1006.6 |
| 20260831190351 | 59 | 302 | 0.0 | 1.0 | 0.00 | 0.00 | 0.00 | 89 | 1006.6 |
| 20260831185852 | 59 | 302 | 0.0 | 2.0 | 0.00 | 0.00 | 0.00 | 89 | 1006.7 |
| 20260831185331 | 59 | 302 | 1.0 | 2.0 | 0.00 | 0.00 | 0.00 | 88 | 1006.7 |
| 20260831184852 | 60 | 302 | 0.0 | 0.0 | 0.00 | 0.00 | 0.00 | 88 | 1006.6 |
| 20260831184348 | 60 | 302 | 0.0 | 1.0 | 0.00 | 0.00 | 0.00 | 87 | 1006.6 |
| 20260831183835 | 60 | 302 | 0.0 | 1.0 | 0.00 | 0.00 | 0.00 | 87 | 1006.6 |
| 20260831183404 | 60 | 302 | 0.0 | 1.0 | 0.00 | 0.00 | 0.00 | 86 | 1006.7 |
| 20260831182845 | 61 | 302 | 0.0 | 1.0 | 0.00 | 0.00 | 0.00 | 86 | 1006.7 |
| 20260831182325 | 61 | 302 | 0.0 | 1.0 | 0.00 | 0.00 | 0.00 | 85 | 1006.6 |
| 20260831181825 | 62 | 302 | 0.0 | 1.0 | 0.00 | 0.00 | 0.00 | 84 | 1006.6 |
| 20260831181326 | 62 | 302 | 0.0 | 1.0 | 0.00 | 0.00 | 0.00 | 83 | 1006.6 |
| 20260831180835 | 63 | 302 | 0.0 | 0.0 | 0.00 | 0.00 | 0.00 | 83 | 1006.6 |
| 20260831180324 | 63 | 302 | 0.0 | 1.0 | 0.00 | 0.00 | 0.00 | 83 | 1006.5 |
| 20260831175845 | 64 | 302 | 0.0 | 1.0 | 0.00 | 0.00 | 0.00 | 82 | 1006.5 |
| 20260831175324 | 64 | 302 | 1.0 | 1.0 | 0.00 | 0.00 | 0.00 | 82 | 1006.5 |
| 20260831174825 | 64 | 302 | 0.0 | 2.0 | 0.00 | 0.00 | 0.00 | 81 | 1006.5 |
| 20260831174347 | 64 | 302 | 0.0 | 2.0 | 0.00 | 0.00 | 0.00 | 80 | 1006.5 |
| 20260831173834 | 64 | 302 | 0.0 | 1.0 | 0.00 | 0.00 | 0.00 | 80 | 1006.5 |
| 20260831173343 | 65 | 302 | 0.0 | 1.0 | 0.00 | 0.00 | 0.00 | 79 | 1006.4 |
| 20260831172824 | 65 | 302 | 0.0 | 1.0 | 0.00 | 0.00 | 0.00 | 79 | 1006.4 |
| 20260831172333 | 65 | 302 | 0.0 | 2.0 | 0.00 | 0.00 | 0.00 | 78 | 1006.5 |
| 20260831171842 | 65 | 302 | 0.0 | 2.0 | 0.00 | 0.00 | 0.00 | 78 | 1006.5 |
| 20260831171327 | 65 | 302 | 1.0 | 2.0 | 0.00 | 0.00 | 0.00 | 78 | 1006.4 |
| 20260831170828 | 65 | 302 | 1.0 | 3.0 | 0.00 | 0.00 | 0.00 | 78 | 1006.4 |
| 20260831170355 | 66 | 302 | 1.0 | 4.0 | 0.00 | 0.00 | 0.00 | 77 | 1006.4 |
| 20260831165840 | 66 | 312 | 1.0 | 4.0 | 0.00 | 0.00 | 0.00 | 78 | 1006.3 |
| 20260831165327 | 66 | 333 | 1.0 | 3.0 | 0.00 | 0.00 | 0.00 | 77 | 1006.3 |
| 20260831164847 | 66 | 302 | 1.0 | 3.0 | 0.00 | 0.00 | 0.00 | 78 | 1006.2 |
| 20260831164326 | 66 | 283 | 1.0 | 3.0 | 0.00 | 0.00 | 0.00 | 79 | 1006.2 |
| 20260831163829 | 66 | 283 | 1.0 | 5.0 | 0.00 | 0.00 | 0.00 | 79 | 1006.2 |
| 20260831163346 | 66 | 282 | 2.0 | 5.0 | 0.00 | 0.00 | 0.00 | 79 | 1006.2 |